Location: Calais Saint-Pierre
(50.9509°N, 1.8522°E)
Time: 12:33:29
(UTC+00:00)

Meteor 2-9 Rocket - Pass Details

Date: 15 May 2026
Orbit: 790 x 893 km, 81.3° (Epoch: 8 June)

Event Time Altitude Azimuth Distance (km) Brightness Sun altitude
Rises 22:31:05 0° 349° (NNW) 3,319 9.0 -17.9°
Reaches altitude 10° 22:33:28 10° 352° (N) 2,394 7.8 -18.1°
Maximum altitude 22:38:51 65° 75° (ENE) 897 4.3 -18.3°
Enters shadow 22:41:23 32° 147° (SSE) 1,387 4.8 -18.4°
